Angola Tri-State Steuben Coun, IN

5:00 PM EDT on July 22, 2017 (GMT -0400)
Tri-State Steuben County

Weather History for KANQ - April, 2014

Change the Weather History Date:

Saturday, April 5, 2014

  Actual Average (KFWA) Record (KFWA)
Temperature  
Mean Temperature 39 °F -  
Max Temperature 48 °F 53 °F 83 °F (1988)
Min Temperature 30 °F 34 °F 16 °F (1995)
Degree Days  
Heating Degree Days 26    
Moisture  
Dew Point 26 °F    
Average Humidity 65    
Maximum Humidity 86    
Minimum Humidity 37    
Precipitation  
Precipitation 0.00 in - - ()
Sea Level Pressure  
Sea Level Pressure 30.08 in    
Wind  
Wind Speed 11 mph (NW)    
Max Wind Speed 18 mph    
Max Gust Speed 26 mph    
Visibility 10 miles    
Events      
Averages and records for this station are not official NWS values.
T = Trace of Precipitation, MM = Missing Value Source: NWS Daily Summary

Daily Weather History Graph

Daily Weather History Graph

Search for Another Location

Airport or City:

Trip Planner

Search our weather history database for the weather conditions in past years. The results will help you decide how hot, cold, wet, or windy it might be!

Date:

Astronomy

Apr. 05, 2014 Rise Set
Actual Time 7:16 AM EDT 8:10 PM EDT
Civil Twilight 6:48 AM EDT 8:38 PM EDT
Nautical Twilight 6:14 AM EDT 9:11 PM EDT
Astronomical Twilight 5:40 AM EDT 9:46 PM EDT
Moon 11:20 AM EDT (4/5) 1:22 AM EDT (4/5)
Length of Visible Light 13h 49m
Length of Day
12h 53m
Waxing Crescent, 34% of the Moon is Illuminated
Apr 5
Waxing Crescent
Apr 7
First Quarter
Apr 15
Full
Apr 22
Last Quarter
Apr 29
New

Hourly Weather History & Observations

Time (EDT) Temp. Windchill Dew Point Humidity Pressure Visibility Wind Dir Wind Speed Gust Speed Precip Events Conditions
12:15 AM 35.6 °F 26.6 °F 28.4 °F 75% 29.83 in 10.0 mi West 13.8 mph - N/A   Overcast
12:35 AM 35.6 °F 26.2 °F 28.4 °F 75% 29.85 in 10.0 mi WNW 15.0 mph - N/A   Overcast
12:55 AM 35.6 °F 27.5 °F 28.4 °F 75% 29.86 in 10.0 mi West 11.5 mph - N/A   Overcast
1:15 AM 35.6 °F 25.2 °F 28.4 °F 75% 29.86 in 10.0 mi WNW 18.4 mph - N/A   Overcast
1:35 AM 33.8 °F 25.8 °F 28.4 °F 81% 29.88 in 10.0 mi WNW 10.4 mph - N/A   Overcast
1:55 AM 33.8 °F 23.2 °F 28.4 °F 81% 29.89 in 10.0 mi NW 17.3 mph 26.5 mph N/A   Overcast
2:15 AM 33.8 °F 25.3 °F 28.4 °F 81% 29.90 in 10.0 mi West 11.5 mph - N/A   Overcast
2:35 AM 33.8 °F 24.3 °F 26.6 °F 75% 29.91 in 10.0 mi WNW 13.8 mph - N/A   Overcast
2:55 AM 33.8 °F 23.9 °F 26.6 °F 75% 29.92 in 10.0 mi WNW 15.0 mph - N/A   Overcast
3:15 AM 32.0 °F 20.8 °F 26.6 °F 80% 29.93 in 10.0 mi WNW 17.3 mph - N/A   Overcast
3:35 AM 32.0 °F 22.1 °F 26.6 °F 80% 29.94 in 10.0 mi WNW 13.8 mph - N/A   Overcast
3:55 AM 32.0 °F 21.2 °F 26.6 °F 80% 29.95 in 10.0 mi NW 16.1 mph - N/A   Overcast
4:15 AM 30.2 °F 19.8 °F 24.8 °F 80% 29.96 in 10.0 mi WNW 13.8 mph - N/A   Overcast
4:35 AM 30.2 °F 18.9 °F 24.8 °F 80% 29.97 in 10.0 mi NW 16.1 mph - N/A   Overcast
4:55 AM 30.2 °F 20.2 °F 24.8 °F 80% 29.99 in 10.0 mi NW 12.7 mph - N/A   Overcast
5:15 AM 30.2 °F 19.8 °F 24.8 °F 80% 29.99 in 10.0 mi NW 13.8 mph - N/A   Overcast
5:35 AM 30.2 °F 20.8 °F 24.8 °F 80% 30.00 in 10.0 mi NW 11.5 mph - N/A   Overcast
5:55 AM 30.2 °F 21.9 °F 24.8 °F 80% 30.01 in 10.0 mi WNW 9.2 mph - N/A   Overcast
6:15 AM 30.2 °F 20.8 °F 24.8 °F 80% 30.02 in 10.0 mi NW 11.5 mph - N/A   Overcast
6:35 AM 30.2 °F 20.2 °F 24.8 °F 80% 30.03 in 10.0 mi NW 12.7 mph - N/A   Overcast
6:55 AM 30.2 °F 19.8 °F 24.8 °F 80% 30.03 in 10.0 mi NW 13.8 mph - N/A   Overcast
7:15 AM 30.2 °F 21.3 °F 24.8 °F 80% 30.04 in 10.0 mi NW 10.4 mph - N/A   Overcast
7:35 AM 30.2 °F 21.9 °F 24.8 °F 80% 30.05 in 10.0 mi WNW 9.2 mph - N/A   Overcast
7:55 AM 32.0 °F 24.2 °F 24.8 °F 75% 30.06 in 10.0 mi WNW 9.2 mph - N/A   Overcast
8:15 AM 32.0 °F 23.0 °F 24.8 °F 75% 30.07 in 10.0 mi NW 11.5 mph - N/A   Overcast
8:35 AM 32.0 °F 22.1 °F 24.8 °F 75% 30.08 in 10.0 mi WNW 13.8 mph - N/A   Overcast
8:55 AM 33.8 °F 25.8 °F 24.8 °F 70% 30.09 in 10.0 mi NW 10.4 mph - N/A   Overcast
9:15 AM 33.8 °F 25.8 °F 24.8 °F 70% 30.10 in 10.0 mi WNW 10.4 mph - N/A   Overcast
9:35 AM 33.8 °F 25.3 °F 24.8 °F 70% 30.10 in 10.0 mi NW 11.5 mph - N/A   Mostly Cloudy
9:55 AM 35.6 °F 25.9 °F 26.6 °F 70% 30.11 in 10.0 mi WNW 16.1 mph - N/A   Mostly Cloudy
10:15 AM 33.8 °F 24.3 °F 24.8 °F 70% 30.12 in 10.0 mi WNW 13.8 mph - N/A   Mostly Cloudy
10:35 AM 35.6 °F 27.5 °F 26.6 °F 70% 30.13 in 10.0 mi WNW 11.5 mph - N/A   Mostly Cloudy
10:55 AM 37.4 °F 29.8 °F 26.6 °F 65% 30.13 in 10.0 mi WNW 11.5 mph - N/A   Partly Cloudy
11:15 AM 37.4 °F 29.8 °F 26.6 °F 65% 30.13 in 10.0 mi WNW 11.5 mph - N/A   Clear
11:35 AM 37.4 °F 29.3 °F 26.6 °F 65% 30.13 in 10.0 mi WNW 12.7 mph - N/A   Clear
11:55 AM 39.2 °F 33.0 °F 28.4 °F 65% 30.14 in 10.0 mi WNW 9.2 mph - N/A   Partly Cloudy
12:15 PM 39.2 °F 32.5 °F 28.4 °F 65% 30.14 in 10.0 mi WNW 10.4 mph - N/A   Clear
12:35 PM 41.0 °F 36.4 °F 28.4 °F 61% 30.14 in 10.0 mi NW 6.9 mph - N/A   Clear
12:55 PM 42.8 °F 38.0 °F 28.4 °F 57% 30.14 in 10.0 mi NW 8.1 mph - N/A   Clear
1:15 PM 42.8 °F 38.0 °F 28.4 °F 57% 30.15 in 10.0 mi WNW 8.1 mph - N/A   Clear
1:35 PM 42.8 °F 36.6 °F 28.4 °F 57% 30.14 in 10.0 mi NW 11.5 mph - N/A   Clear
1:55 PM 44.6 °F 39.7 °F 28.4 °F 53% 30.14 in 10.0 mi WNW 9.2 mph - N/A   Clear
2:15 PM 44.6 °F 39.7 °F 28.4 °F 53% 30.14 in 10.0 mi NW 9.2 mph - N/A   Clear
2:35 PM 44.6 °F 40.2 °F 28.4 °F 53% 30.14 in 10.0 mi North 8.1 mph - N/A   Clear
2:55 PM 46.4 °F 41.5 °F 26.6 °F 46% 30.14 in 10.0 mi NW 10.4 mph - N/A   Clear
3:15 PM 46.4 °F 42.9 °F 24.8 °F 43% 30.14 in 10.0 mi NNW 6.9 mph - N/A   Clear
3:35 PM 46.4 °F 42.9 °F 24.8 °F 43% 30.13 in 10.0 mi NW 6.9 mph - N/A   Clear
3:55 PM 46.4 °F 41.9 °F 24.8 °F 43% 30.14 in 10.0 mi WNW 9.2 mph - N/A   Clear
4:15 PM 46.4 °F 43.5 °F 24.8 °F 43% 30.14 in 10.0 mi NNW 5.8 mph - N/A   Clear
4:35 PM 46.4 °F 42.9 °F 24.8 °F 43% 30.14 in 10.0 mi WNW 6.9 mph - N/A   Clear
4:55 PM 46.4 °F 41.5 °F 21.2 °F 37% 30.13 in 10.0 mi North 10.4 mph - N/A   Clear
5:15 PM 48.2 °F - 23.0 °F 37% 30.14 in 10.0 mi NW 11.5 mph - N/A   Clear
5:35 PM 46.4 °F 43.5 °F 24.8 °F 43% 30.14 in 10.0 mi Variable 5.8 mph - N/A   Clear
5:55 PM 46.4 °F 44.3 °F 21.2 °F 37% 30.14 in 10.0 mi WNW 4.6 mph - N/A   Clear
6:15 PM 46.4 °F 42.4 °F 21.2 °F 37% 30.14 in 10.0 mi NNW 8.1 mph - N/A   Clear
6:35 PM 46.4 °F 42.9 °F 21.2 °F 37% 30.15 in 10.0 mi North 6.9 mph - N/A   Clear
6:55 PM 46.4 °F 42.4 °F 21.2 °F 37% 30.15 in 10.0 mi NW 8.1 mph - N/A   Clear
7:15 PM 44.6 °F 40.7 °F 21.2 °F 39% 30.15 in 10.0 mi NNW 6.9 mph - N/A   Clear
7:35 PM 44.6 °F 42.2 °F 21.2 °F 39% 30.15 in 10.0 mi Variable 4.6 mph - N/A   Clear
7:55 PM 42.8 °F 40.1 °F 23.0 °F 46% 30.16 in 10.0 mi NNW 4.6 mph - N/A   Clear
8:15 PM 42.8 °F 40.1 °F 23.0 °F 46% 30.16 in 10.0 mi NW 4.6 mph - N/A   Clear
8:35 PM 39.2 °F 37.0 °F 24.8 °F 56% 30.16 in 10.0 mi NW 3.5 mph - N/A   Clear
8:55 PM 39.2 °F 37.0 °F 24.8 °F 56% 30.17 in 10.0 mi NW 3.5 mph - N/A   Clear
9:15 PM 37.4 °F - 24.8 °F 60% 30.18 in 10.0 mi Calm Calm - N/A   Clear
9:35 PM 35.6 °F - 24.8 °F 65% 30.19 in 10.0 mi Calm Calm - N/A   Clear
9:55 PM 35.6 °F - 24.8 °F 65% 30.19 in 10.0 mi Calm Calm - N/A   Clear
10:15 PM 33.8 °F - 24.8 °F 70% 30.19 in 10.0 mi Calm Calm - N/A   Clear
10:35 PM 33.8 °F - 26.6 °F 75% 30.18 in 10.0 mi Calm Calm - N/A   Clear
10:55 PM 32.0 °F - 24.8 °F 75% 30.18 in 10.0 mi Calm Calm - N/A   Clear
11:15 PM 30.2 °F - 24.8 °F 80% 30.18 in 10.0 mi Calm Calm - N/A   Clear
11:35 PM 30.2 °F - 26.6 °F 86% 30.18 in 10.0 mi Calm Calm - N/A   Clear
11:55 PM 30.2 °F - 26.6 °F 86% 30.18 in 10.0 mi Calm Calm - N/A   Clear